Location: Newark
(45.2500°N, 7.5833°E)
Time: 01:59:15
(UTC+00:00)

Tiros 1 despin weight - Pass Details

Date: 26 January 2020
Orbit: 594 x 642 km, 48.2° (Epoch: 19 February)

Event Time Altitude Azimuth Distance (km) Brightness Sun altitude
Rises 14:58:47 0° 289° (WNW) 2,903 ? 12.0°
Reaches altitude 10° 15:01:05 10° 289° (WNW) 2,003 ? 11.7°
Maximum altitude 15:05:42 84° 204° (SSW) 641 ? 11.1°
Drops below altitude 10° 15:10:22 10° 114° (ESE) 2,021 ? 10.5°
Sets 15:12:42 0° 114° (ESE) 2,932 ? 10.2°
